Regional Weather Roundup
Issued by NWS Columbia, SC

Home | Current Version | Previous Version | Text Only | Print | Product List | Glossary On
Versions: 1 2 3 4 5 6 7 8 9 10 11 12 13 14 15 16 17 18 19 20 21 22 23 24 25 26 27 28
000
ASUS42 KCAE 210210
RWRCAE
REGIONAL WEATHER ROUNDUP
NATIONAL WEATHER SERVICE COLUMBIA SC
1000 PM EDT SUN APR 20 2014

NOTE: "FAIR" INDICATES FEW OR NO CLOUDS BELOW 12,000 FEET WITH NO
SIGNIFICANT WEATHER AND/OR OBSTRUCTIONS TO VISIBILITY.

NOT ALL STATIONS ARE QUALITY CONTROLLED BY THE NATIONAL
WEATHER SERVICE. USE DATA WITH CAUTION...ESPECIALLY
DEWPOINT OBSERVATIONS.

SCZ001>056-GAZ040-063>065-077-210300-
...UPSTATE SOUTH CAROLINA...

CITY           SKY/WX    TMP DP  RH WIND       PRES   REMARKS
ANDERSON       CLEAR     55  40  56 NE3       30.19R
LIBERTY        FAIR      56   2  11 MISG      30.19R
SPARTANBURG    FAIR      63  36  36 NE3       30.19S
CLEMSON        PTCLDY    62  33  33 N3        30.20R
GREENVILLE     CLEAR     60  34  37 N3        30.20R
GREENWOOD      CLEAR     54  42  64 CALM      30.19R
GREER          CLEAR     59  35  40 N3        30.18R
ROCK HILL      CLEAR     54  39  57 CALM      30.20R
CHESTER        FAIR      57  43  58 NE7       30.20S
LAURENS        FAIR      55  41  58 NE6       30.19S


...CENTRAL SOUTH CAROLINA...

CITY           SKY/WX    TMP DP  RH WIND       PRES   REMARKS
COLUMBIA APT   CLOUDY    66  40  38 N5        30.16S
COLUMBIA OWENS CLOUDY    65  39  38 VRB3      30.17S
DARLINGTON     CLOUDY    63  46  55 NE7       30.18S
FLORENCE       CLOUDY    63  49  60 N10       30.16R
MCENTIRE ANGB  CLOUDY    63  42  45 N6        30.16S
ORANGEBURG     CLOUDY    63  43  48 N8        30.15R
SUMTER SHAW    CLOUDY    63  46  55 N9        30.14R
NEWBERRY       FAIR      54  46  76 NE5       30.21R
AIKEN          CLOUDY    61  48  63 NE3       30.20S
BARNWELL       CLOUDY    63  48  59 N3        30.16S
MANNING        CLOUDY    63  36  36 NE7       30.14S
CAMDEN         CLOUDY    63  45  51 NE9       30.17F
LANCASTER      FAIR      52  43  71 CALM      30.19S
WINNSBORO      MOCLDY    61  39  44 NE7       30.17S


...EASTERN AND COASTAL SOUTH CAROLINA...

CITY           SKY/WX    TMP DP  RH WIND       PRES   REMARKS
MYRTLE BEACH   CLOUDY    59  48  67 N17G29    30.10R
N MYRTLE BCH   CLOUDY    58  47  66 N20G33    30.10R
CONWAY         CLOUDY    59  45  58 N14G25    30.13S
MARION         CLOUDY    61  45  55 N17G23    30.16R
HARTSVILLE     CLOUDY    63  45  51 N6        30.17S
FLORENCE       CLOUDY    63  49  60 N10       30.16R
DARLINGTON     CLOUDY    63  46  55 NE7       30.18S
CHARLESTON APT CLOUDY    65  51  60 N15       30.12R
MOUNT PLEASANT CLOUDY   N/A N/A N/A N9G16     30.11R
WALTERBORO     CLOUDY    61  50  67 N6        30.14S
BEAUFORT       CLOUDY    64  50  60 NE7       30.12S


...EASTERN GEORGIA...

CITY           SKY/WX    TMP DP  RH WIND       PRES   REMARKS
AUGUSTA BUSH F CLOUDY    63  44  50 NE3       30.15F
AUGUSTA DANIEL CLOUDY    66  42  41 NE6       30.16F
THOMSON        CLEAR     56  51  82 CALM      30.21R
WASHINGTON     FAIR      54  45  71 CALM      30.17R
CLAXTON        MOCLDY    63  55  77 CALM      30.14S
SYLVANIA       PTCLDY    63  51  63 NE5       30.15S
STATESBORO     MOCLDY    59  50  73 CALM      30.14S
SAVANNAH       PTCLDY    60  51  72 N5        30.13R


...SOUTHERN NORTH CAROLINA...

CITY           SKY/WX    TMP DP  RH WIND       PRES   REMARKS
CHARLOTTE      PTCLDY    59  34  39 NE6       30.21R
MONROE         CLEAR     57  37  47 NE6       30.19S
WADESBORO      PTCLDY    58  41  53 CALM      30.18S
ROCKINGHAM       N/A     62  47  56 N6        30.17F
RUTHERFORDTON  CLEAR     55  35  47 NW6       30.22R
ASHEVILLE      CLEAR     54  35  48 CALM      30.23R

$$



USA.gov is the U.S. government's official web portal to all federal, state and local government web resources and services.